User: anonymous   Login
Location: Unspecified
(0.0000°N, 0.0000°E)
Time: 08:57:54
(UTC+00:00)
Language:

P76-5 - Orbit

View from above orbital plane
View from above orbital plane
View from above satellite
View from above satellite

Ground track
Ground track

The orbit data is extracted from the following two-line orbital elements,

1  8860U 76047A   17204.87924566 -.00000015 +00000-0 +36192-4 0  9999
2  8860 099.6778 314.1832 0041780 357.5449 150.7902 13.67550771052046
Epoch (UTC): 23 July 2017 21:06:06
Eccentricity: 0.0041780
inclination: 99.6778°
perigee height: 977 km
apogee height: 1039 km
right ascension of ascending node: 314.1832°
argument of perigee: 357.5449°
revolutions per day: 13.67550771
mean anomaly at epoch: 150.7902°
orbit number at epoch: 5204

The dashed part of the orbit path shows where the satellite is in the earth's shadow,  

DLR